Location: Rowland
(34.5359°N, 79.2929°W)
Time: 14:16:07
(UTC+00:00)

SR - Pass Details

Date: 10 October 2022
Orbit: 577 x 875 km, 66.7° (Epoch: 28 November)

Event Time Altitude Azimuth Distance (km) Brightness Sun altitude
Rises 22:15:50 0° 157° (SSE) 3,395 ? 5.9°
Reaches altitude 10° 22:19:29 10° 134° (SE) 2,497 ? 5.2°
Maximum altitude 22:22:26 14° 103° (ESE) 2,219 ? 4.6°
Drops below altitude 10° 22:25:25 10° 72° (ENE) 2,526 ? 4.0°
Sets 22:29:07 0° 49° (NE) 3,461 ? 3.2°
